#timestamp,LO_Frequency,Hit 
1505887215.7,286047000.4,N
1505887235.5,286046998.6,N
1505887255.4,286047000.8,N
1505887275.2,286047000.8,N
1505887295.0,286046999.8,N
1505887295.9,286046999.8,N
1505887315.8,286047000.7,N
1505887335.6,286046998.4,N
1505887355.4,286046999.0,N
1505887375.2,286046997.0,N
1505887395.1,286047002.4,N
1505887396.0,286047002.4,N
1505887415.8,286046999.4,N
1505887435.6,286046996.0,N
1505887455.5,286046993.3,P
1505887475.3,286046999.3,N
1505887495.1,286046999.4,N
1505887515.9,286046997.6,N
1505887535.7,286046997.6,N
1505887555.5,286046998.9,N
1505887575.4,286046996.9,N
1505887595.2,286046997.8,N
1505887615.0,286046993.3,P
1505887615.9,286046993.3,P
1505887635.8,286046998.9,N
1505887655.6,286047003.9,N
1505887675.4,286046999.8,N
1505887695.3,286047003.3,N
1505887715.1,286047006.6,N
1505887735.8,286047008.0,N
1505887755.7,286047010.7,N
1505887775.5,286047012.2,N
1505887795.3,286047008.1,N
1505887815.2,286047007.1,N
1505887835.9,286047006.1,N
1505887855.7,286047009.9,N
1505887875.5,286047006.5,N
1505887895.4,286047008.8,N
1505887915.2,286047006.7,N
1505887935.0,286047004.5,N
1505887935.9,286047004.5,N
1505887955.8,286047005.1,N
1505887975.6,286047005.2,N
1505887995.4,286047006.2,N
1505888015.3,286047006.8,N
1505888035.1,286047006.8,N
1505888036.0,286047006.8,N
1505888055.8,286047004.9,N
1505888075.7,286047004.7,N
1505888095.5,286047006.1,N
1505888115.3,286047009.0,N
1505888135.1,286047008.9,N
1505888155.9,286047005.8,N
1505888175.7,286047000.0,N
1505888195.5,286047001.8,N
1505888215.4,286046999.7,N
1505888235.2,286047002.4,N
1505888255.0,286046999.7,N
1505888255.9,286046999.7,N
1505888275.8,286047000.1,N
1505888295.6,286046998.3,N
1505888315.4,286046998.9,N
1505888335.3,286047000.0,N
1505888355.1,286047004.9,N
1505888356.0,286047004.9,N
1505888375.8,286047006.3,N
1505888395.7,286047006.1,N
1505888415.5,286047008.2,N
1505888435.3,286047010.2,P
1505888455.2,286046999.7,N
1505888475.9,286047002.7,N
1505888495.7,286047005.6,N
1505888515.6,286047004.5,N
1505888535.4,286047001.6,N
1505888555.2,286047003.6,N
1505888575.1,286047007.2,N
1505888576.0,286047007.2,N
1505888595.8,286047006.1,N
1505888615.6,286047005.5,N
1505888635.5,286047000.1,N
1505888655.3,286047003.1,N
1505888675.1,286047004.5,N
1505888695.8,286047003.1,N
1505888715.7,286046999.9,N
1505888735.5,286047004.1,N
1505888755.3,286047005.1,N
1505888775.2,286047006.3,N
1505888795.9,286047005.0,N
1505888815.7,286047005.9,N
1505888835.6,286046999.8,N
1505888855.4,286046999.7,N
1505888875.2,286047001.6,N
1505888895.1,286047005.6,N
1505888896.0,286047005.6,N
1505888915.8,286047002.5,N
1505888935.6,286047003.6,N
1505888955.4,286047000.2,N
1505888975.3,286047001.0,N
1505888995.1,286046999.7,N
1505889015.8,286047004.0,N
1505889035.7,286047003.8,N
1505889055.5,286047002.2,N
1505889075.3,286047000.1,N
1505889095.2,286047002.0,N
1505889115.9,286047003.0,N
1505889135.7,286047005.3,N
1505889155.6,286047006.8,N
1505889175.4,286047009.2,P
1505889195.2,286047004.6,N
1505889215.1,286047005.1,N
1505889216.0,286047005.1,N
1505889235.8,286047006.9,P
1505889255.6,286047001.3,N
1505889275.5,286047002.5,N
1505889295.3,286047000.8,N
1505889315.1,286046999.6,N
1505889335.9,286046997.8,N
1505889355.7,286046996.6,N
1505889375.5,286047000.4,N
1505889395.4,286047002.7,N
1505889415.2,286047005.2,N
1505889435.0,286047007.3,N
1505889435.9,286047007.3,N
1505889455.7,286047006.5,N
1505889475.6,286047007.5,N
1505889495.4,286047007.2,N
1505889515.2,286047005.1,N
1505889535.1,286046998.5,N
1505889536.0,286046998.5,N
1505889555.8,286046997.8,N
1505889575.6,286046999.4,N
1505889595.5,286046995.0,N
1505889615.3,286046994.5,N
1505889635.1,286046994.3,N
1505889655.9,286046992.1,N
1505889675.7,286046990.7,N
1505889695.5,286046992.3,N
1505889715.4,286046993.6,N
1505889735.2,286046993.7,N
1505889755.0,286046996.4,N
1505889755.9,286046996.4,N
1505889775.7,286046995.1,N
1505889795.6,286046999.1,N
1505889815.4,286046996.6,N
1505889835.2,286046999.1,N
1505889855.1,286046997.0,N
1505889856.0,286046997.0,N
1505889875.8,286046999.5,N
1505889895.6,286046999.7,N
1505889915.5,286047001.8,N
1505889935.3,286047003.3,N
1505889955.1,286047004.3,N
1505889975.9,286047004.0,N
1505889995.7,286047004.0,N
1505890015.5,286046999.6,N
1505890035.4,286046999.6,N
1505890055.2,286046998.2,N
1505890075.0,286047001.0,N
1505890075.9,286047001.0,N
1505890095.8,286046996.5,N
1505890115.6,286046995.2,N
1505890135.4,286046995.6,N
1505890155.2,286046992.2,N
1505890175.1,286046994.7,N
1505890176.0,286046994.7,N
1505890195.8,286046993.2,N
1505890215.6,286046990.9,N
1505890235.5,286046989.6,N
1505890255.3,286046993.0,N
1505890275.1,286046995.5,N
1505890295.9,286046999.3,N
1505890315.7,286046999.2,N
1505890335.5,286046994.6,N
1505890355.4,286046990.4,N
1505890375.2,286046993.5,N
1505890395.0,286046993.4,N
1505890395.9,286046993.4,N
1505890415.8,286046989.8,N
1505890435.6,286046991.6,N
1505890455.4,286046994.6,N
1505890475.2,286046994.9,N
1505890495.1,286046996.7,N
1505890496.0,286046996.7,N
1505890515.8,286046999.6,N
1505890535.6,286046996.3,N
1505890555.5,286046994.1,N
1505890575.3,286046993.6,N
1505890595.1,286046995.4,N
1505890615.9,286046999.4,N
1505890635.7,286046998.8,N
1505890655.5,286047000.8,N
1505890675.4,286047003.1,N
1505890695.2,286047001.4,N
1505890715.0,286047001.5,N
1505890715.9,286047001.5,N
1505890735.8,286047001.7,N
1505890755.6,286047001.7,N
1505890775.4,286047000.2,N
1505890795.3,286046999.5,N
